Find Starlink 11318

NORAD ID: 61252 Int'l Des: 2024-175 Owner: SPXS Country: US Constellation: starlink operational
LEOCIRCULAR

当前视图

正在加载3D地球...

About Starlink 11318

Starlink 11318 (NORAD 61252) is a starlink constellation satellite (v2 mini d2c) launched Sep 25, 2024 by SPXS of US. It operates in LEO, CIRCULAR orbit with a mass of 960.00 kg.

关于 Starlink 11318

正在加载描述...

即将过境

Passes for default location (London). Set your location on the main map for personalized predictions.

高度历史

Loading altitude history...

两行轨道根数

1 61252U 24175K 26195.26797800 .00000076 00000-0 54848-5 0 9994
2 61252 53.1602 152.5267 0000914 98.5306 261.5815 15.69709255104415
Epoch: Jul 14, 2026 • Age: 16 hours

当前状态

高度 365.4 km
远地点 / 近地点 N/A
速度 7.69 km/s
星下点 -19.86°S, 73.3°E
发射日期 Sep 25, 2024
运行时间 1.7 years
类型 internet

技术详情

分类 Payload
质量 960.00 kg
干质量 910.00 kg
总质量 960.00 kg
长度 0.30 m
直径 4.10 m
跨度 29.00 m
形状 Box + pan
制造商 SPXS
平台类型 Starlink V2MD
阶段状态 In Orbit
所有者/国家 SPXS/US

Most Searched